This is the latest recevied weather packets stored in our database for station/object KR8N. If no packets are shown the sender has not sent any weather packets the latest 1 day(s).
| Time | Temp. | Humidity | Pressure | Rain* | Wind** | Luminosity | Snow |
|---|---|---|---|---|---|---|---|
| 1778115303 | 11.11° C | 96% | 1015 hPa | 0 mm | - | 0 W/m² | - |
| 1778114696 | 11.11° C | 96% | 1015.5 hPa | 0 mm | - | 0 W/m² | - |
| 1778114394 | 11.67° C | 96% | 1015.4 hPa | 0 mm | - | 0 W/m² | - |
| 1778114089 | 11.67° C | 96% | 1015.3 hPa | 0 mm | - | 0 W/m² | - |
| 1778113784 | 11.67° C | 96% | 1015.3 hPa | 0 mm | - | 0 W/m² | - |
| 1778113481 | 11.67° C | 96% | 1015.2 hPa | 0 mm | - | 0 W/m² | - |
| 1778112874 | 11.67° C | 95% | 1015.1 hPa | 0 mm | - | 1 W/m² | - |
| 1778112572 | 11.67° C | 95% | 1015.3 hPa | 0 mm | - | 1 W/m² | - |
| 1778111661 | 11.67° C | 95% | 1015.6 hPa | 0 mm | - | 3 W/m² | - |
| 1778108022 | 12.78° C | 95% | 1015 hPa | 0 mm | - | 38 W/m² | - |
| 1778107112 | 12.78° C | 93% | 1015.2 hPa | 0 mm | - | 30 W/m² | - |
| 1778106807 | 12.78° C | 93% | 1015.1 hPa | 0 mm | - | 20 W/m² | - |
| 1778106505 | 12.78° C | 93% | 1015 hPa | 0 mm | - | 15 W/m² | - |
| 1778104988 | 13.33° C | 93% | 1015.3 hPa | 0 mm | - | 77 W/m² | - |
| 1778104076 | 13.33° C | 93% | 1015 hPa | 1.78 mm | - | 56 W/m² | - |
| 1778102562 | 13.33° C | 93% | 1015 hPa | 0 mm | - | 174 W/m² | - |
| 1778101651 | 13.33° C | 94% | 1014.6 hPa | 1.27 mm | - | 197 W/m² | - |
| 1778101045 | 13.33° C | 94% | 1014.7 hPa | 0 mm | - | 56 W/m² | - |
| 1778097407 | 14.44° C | 93% | 1014.2 hPa | 0 mm | - | 65 W/m² | - |
| 1778096801 | 15° C | 93% | 1014 hPa | 0 mm | - | 78 W/m² | - |
| 1778096195 | 15° C | 93% | 1013.8 hPa | 0 mm | - | 191 W/m² | - |
| 1778095892 | 15° C | 93% | 1014 hPa | 0 mm | - | 119 W/m² | - |
| 1778093769 | 16.67° C | 92% | 1013.8 hPa | 0 mm | - | 145 W/m² | - |
| 1778093465 | 16.67° C | 91% | 1013.7 hPa | 0 mm | - | 170 W/m² | - |
| 1778092860 | 16.67° C | 91% | 1013.7 hPa | 1.78 mm | - | 99 W/m² | - |
* Rain latest hour (hover to see other rain measurements)
** Current wind speed in m/s (hover to see current wind gust speed)